Погода в Пакчонге

Таиланд     14°45′07″N   101°21′26″E
темп.,
°C
ветер,
м/с
пор.,
м/с
влажн.,
%
обл.,
%
осадки,
мм/ч
давл.,
гПа
погр.,
м
20 сентября, пн
пн2001:00+22ю1192100 2.1 100918
04:00+22ююв1191100 2.5 100813
07:00+23юз0089100 2.8 100911
10:00+26з1182100 1.2 1010215
13:00+24ссз1193100 6.9 100882
16:00+24ююв1193100 4.6 100698
19:00+23з1194100 4.8 100711
22:00+23юз1196100 2.0 101018
21 сентября, вт
вт2101:00+22ююз1198100 5.6 100842
04:00+22ссз1199100 2.6 100841
07:00+23св1195100 3.1 100970
10:00+26с118399 2.1 1009697
13:00+26сз1183100 7.8 1007493
16:00+26зсз1183100 7.5 1005252
19:00+24ююз1189100 13.1 100611
22:00+23юв1193100 3.6 100912
22 сентября, ср
ср2201:00+23зюз0094100 5.5 100712
04:00+22в1196100 3.3 100613
07:00+23всв1193100 4.7 100895
10:00+27всв127998 3.7 1008763
13:00+28юв2377100 10.9 1006848
16:00+28юв237971 8.4 1004554
19:00+24вюв119098 13.0 100611
22:00+23юв2292100 5.5 100837
23 сентября, чт
чт2301:00+23вюв2293100 7.1 100818
04:00+22вюв1193100 0.3 100714
07:00+23в2393100 0.3 1008118
10:00+27в568177 0.4 1009928
13:00+26вюв6888100 3.4 1006612
16:00+27юв5780100 0.4 10061046
19:00+23ю1290100 0.6 100847
22:00+23юв2291100 0.0 101020
24 сентября, пт
пт2401:00+23вюв2291100 0.0 101051
04:00+22вюв2292100 0.0 100943
07:00+23вюв2393100 0.0 1011115
10:00+28ююв1274100 0.3 1012706
13:00+28юв1273100 4.9 1009873
16:00+27зюз118388 3.9 100898
19:00+24ю2290100 9.1 100925
22:00+23ю2194100 0.6 101115